Location: Much Hadham
(51.8500°N, 0.0833°E)
Time: 18:09:38
(UTC+00:00)

Daily predictions for brighter satellites

Satellite Brightness Start Highest point End
(mag) Time Altitude Azimuth Time Altitude Azimuth Time Altitude Azimuth
SPOT 3 Rocket 4.3 18:53:30 10° SE 18:58:10 34° ENE 19:02:51 10° N
NOSS 0 Rocket 4.0 18:53:43 10° SSW 18:59:51 65° ESE 19:05:59 10° NE
STARLINK-1076 3.5 18:56:59 10° WNW 19:00:04 52° SSW 19:03:09 10° SE
STARLINK-1092 3.5 18:57:27 10° WNW 19:00:32 52° SSW 19:03:36 10° SE
STARLINK-1080 3.5 18:57:56 10° WNW 19:00:59 51° SSW 19:04:01 10° SE
STARLINK-1090 3.5 18:58:23 10° WNW 19:01:26 51° SSW 19:04:28 10° SE
STARLINK-1089 3.5 18:58:49 10° WNW 19:01:53 50° SSW 19:04:55 10° SE
STARLINK-1107 3.5 18:59:16 10° WNW 19:02:19 50° SSW 19:05:21 10° SE
Cosmos 494 Rocket 4.5 18:58:00 10° S 19:02:41 37° ESE 19:07:25 10° NE
STARLINK-1072 3.7 18:58:47 10° WNW 19:02:46 71° SSW 19:06:43 10° ESE
Cosmos 1331 Rocket 4.0 18:58:06 10° NNW 19:03:17 71° ENE 19:08:26 10° SSE
SL-8 R/B 4.1 18:58:51 10° WSW 19:03:28 50° SSE 19:08:05 10° E
STARLINK-1101 3.7 18:59:23 10° W 19:03:32 76° N 19:07:42 10° E
Cosmos 2333 Rocket 2.8 18:58:54 10° SW 19:04:33 65° NW 19:10:13 10° NNE
SL-16 R/B 3.1 19:01:51 10° SSE 19:06:22 25° ESE 19:10:53 10° NE
STARLINK-1096 3.7 19:03:06 10° WNW 19:07:04 68° SSW 19:11:02 10° ESE
Cosmos 1553 Rocket 3.9 19:02:07 10° S 19:08:11 81° E 19:14:18 10° NNE
STARLINK-1102 3.7 19:04:23 10° W 19:08:33 77° N 19:12:42 10° E
STARLINK-1228 4.0 19:06:28 10° SSW 19:08:52 24° SE 19:11:16 10° E
STARLINK-1233 4.3 19:06:28 10° SSW 19:08:57 22° SE 19:11:26 10° E
STARLINK-1212 4.3 19:06:55 10° SSW 19:09:24 22° SE 19:11:53 10° E
STARLINK-1105 4.3 19:07:21 10° SSW 19:09:51 22° SE 19:12:21 10° E
Cosmos 468 4.5 19:04:57 10° SSW 19:10:10 73° ESE 19:15:28 10° NNE
STARLINK-1206 4.3 19:07:50 10° SSW 19:10:18 22° SE 19:12:47 10° E
STARLINK-1247 4.3 19:08:16 10° SSW 19:10:45 22° SE 19:13:13 10° E
STARLINK-1209 3.9 19:08:41 10° SSW 19:11:07 25° SSE 19:13:26 11° E
STARLINK-1227 4.3 19:08:40 10° SSW 19:11:11 22° SE 19:13:40 10° E
STARLINK-1079 3.8 19:07:26 10° WNW 19:11:24 65° SSW 19:15:21 10° ESE
STARLINK-1218 4.3 19:09:10 10° SSW 19:11:39 22° SE 19:14:05 10° E
STARLINK-1226 4.2 19:09:35 10° SSW 19:12:06 22° SE 19:14:32 11° E
STARLINK-1254 4.2 19:09:59 10° SSW 19:12:32 23° SE 19:14:58 11° E
Cosmos 304 Rocket 3.8 19:08:05 10° NNW 19:12:54 83° ENE 19:17:41 10° SSE
STARLINK-1215 4.2 19:10:28 10° SSW 19:12:59 23° SE 19:15:23 11° E
STARLINK-1231 4.2 19:10:55 10° SSW 19:13:26 23° SE 19:15:49 11° E
STARLINK-1111 3.7 19:09:21 10° W 19:13:30 78° N 19:17:34 11° E
STARLINK-1232 4.2 19:11:48 10° SSW 19:14:21 23° SE 19:16:41 11° E
STARLINK-1217 4.2 19:12:14 10° SSW 19:14:47 23° SE 19:17:07 11° E
STARLINK-1208 4.2 19:12:38 10° SSW 19:15:13 24° SE 19:17:35 11° E
STARLINK-1229 4.2 19:13:07 10° SSW 19:15:41 24° SE 19:17:59 12° E
SL-08 RB Rocket 4.0 19:11:23 10° SE 19:15:43 48° ENE 19:20:07 10° N
STARLINK-1116 3.8 19:11:47 10° WNW 19:15:43 63° SSW 19:19:33 11° ESE
STARLINK-1271 4.2 19:13:33 10° SSW 19:16:07 24° SE 19:18:25 12° E
Cosmos 1626 2.4 19:12:38 10° N 19:16:14 45° ENE 19:19:47 10° SSE
STARLINK-1270 4.1 19:14:00 10° SSW 19:16:35 24° SE 19:18:51 12° E
STARLINK-1154 4.1 19:14:26 10° SSW 19:17:01 24° SE 19:19:16 12° E
STARLINK-1197 4.1 19:15:20 10° SSW 19:17:56 24° SE 19:20:09 12° E
STARLINK-1189 4.1 19:15:46 10° SSW 19:18:22 24° SE 19:20:35 12° E
STARLINK-1073 3.7 19:14:20 10° W 19:18:29 79° N 19:22:21 12° E
Cosmos 2315 Rocket 4.4 19:13:15 10° SSE 19:19:03 41° E 19:24:57 10° NNE
STARLINK-1187 4.0 19:16:28 10° SSW 19:19:11 27° SSE 19:21:32 12° E
STARLINK-1188 4.1 19:16:39 10° SSW 19:19:16 25° SE 19:21:27 13° E
Cosmos 371 Rocket 4.5 19:14:48 10° NW 19:19:24 46° WSW 19:24:00 10° S
STARLINK-1198 4.1 19:17:06 10° SSW 19:19:43 25° SE 19:21:53 13° E
STARLINK-1235 3.8 19:17:03 10° SSW 19:19:51 30° SSE 19:22:20 12° E
Ariane Rocket 3.1 19:15:07 10° SSE 19:20:12 83° WSW 19:25:19 10° NNW
STARLINK-1199 4.0 19:18:33 10° SSW 19:21:13 26° SE 19:23:23 13° E
STARLINK-1191 4.0 19:18:59 10° SSW 19:21:39 26° SE 19:23:48 13° E
STARLINK-1210 4.0 19:19:26 10° SSW 19:22:07 26° SE 19:24:14 14° E
Meteor 2-5 Rocket 4.0 19:16:54 10° NNW 19:22:37 74° W 19:28:11 10° S
STARLINK-1221 4.0 19:20:04 10° SSW 19:22:45 26° SE 19:24:52 14° E
STARLINK-1219 4.0 19:20:19 10° SSW 19:23:00 26° SE 19:25:06 14° E
Cosmos 1110 Rocket 4.2 19:17:54 10° NNW 19:23:11 77° WSW 19:28:24 10° SSE
STARLINK-1222 4.0 19:20:46 10° SSW 19:23:27 27° SE 19:25:32 14° E
STARLINK-1121 3.7 19:19:20 10° W 19:23:29 80° N 19:27:08 13° E
STARLINK-1211 4.0 19:21:12 10° SSW 19:23:54 27° SE 19:25:59 14° E
STARLINK-1214 4.0 19:21:39 10° SSW 19:24:21 27° SSE 19:26:24 14° E
STARLINK-1094 3.9 19:20:29 10° WNW 19:24:25 57° SSW 19:27:55 13° SE
Cosmos 2360 Rocket 4.4 19:19:49 10° W 19:24:30 26° NW 19:29:13 10° NNE
STARLINK-1245 4.0 19:22:07 10° SSW 19:24:49 27° SSE 19:26:49 15° E
STARLINK-1238 4.0 19:22:33 10° SSW 19:25:16 27° SSE 19:27:16 15° E
STARLINK-1205 3.9 19:23:40 10° SSW 19:26:23 27° SSE 19:28:19 15° E
STARLINK-1204 3.9 19:23:54 10° SSW 19:26:36 28° SSE 19:28:32 15° E
Cosmos 2297 3.7 19:21:10 10° NNW 19:26:52 79° ENE 19:32:35 10° SE
Resurs 1-3 4.1 19:24:13 10° SE 19:28:19 41° ENE 19:32:27 10° N
STARLINK-1106 3.6 19:24:17 10° WNW 19:28:27 82° N 19:31:54 15° E
STARLINK-1117 4.0 19:24:51 10° WNW 19:28:46 54° SSW 19:32:07 13° SE
STARLINK-1078 4.0 19:29:13 10° WNW 19:33:07 52° SSW 19:36:19 14° SE
Resurs 01 Rocket 2.4 19:29:41 13° SE 19:33:11 34° ENE 19:37:10 10° N
Cosmos 1805 3.5 19:29:27 10° SSW 19:33:21 75° WNW 19:37:18 10° N
STARLINK-1112 3.6 19:29:18 10° WNW 19:33:28 84° N 19:36:43 16° E
CZ-4 R/B 4.4 19:33:11 10° SW 19:35:28 15° W 19:37:45 10° NW
STARLINK-1124 4.2 19:32:03 10° WNW 19:36:05 51° SSW 19:39:20 15° SE
FREGAT/IRIS 2.9 19:33:25 10° S 19:36:06 59° WSW 19:38:49 10° NNW
Cosmos 2237 Rocket 2.2 19:31:20 10° SSW 19:36:58 89° WNW 19:42:39 10° NNE
CZ-4C R/B 3.7 19:31:58 10° W 19:37:10 39° NNW 19:43:23 10° NE
STARLINK-1108 4.1 19:33:37 10° WNW 19:37:30 49° SSW 19:40:32 15° SE
STARLINK-1128 3.6 19:34:16 10° WNW 19:38:26 86° NNE 19:41:29 18° E
H-2A R/B 2.4 19:33:25 10° S 19:38:44 73° WSW 19:43:56 10° NNW
STARLINK-1138 4.4 19:36:09 10° SSW 19:39:40 30° SE 19:41:58 17° E
Cosmos 2278 Rocket 4.0 19:35:03 10° NW 19:40:01 32° WSW 19:44:57 10° SSW
STARLINK-1071 4.2 19:38:00 10° WNW 19:41:51 47° SSW 19:44:45 16° SE
Meteor 1-24 Rocket 4.0 19:36:29 10° NNW 19:42:04 69° W 19:47:25 10° S
STARLINK-1113 3.6 19:39:15 10° WNW 19:43:25 88° NNE 19:46:16 20° ESE
ATLAS CENTAUR R/B 3.9 19:40:22 10° WNW 19:43:44 21° NNW 19:46:56 10° NNE
NOSS 2-1 (E) 3.4 19:40:31 10° SW 19:43:56 70° NW 19:47:55 10° NE
Cosmos 1709 Rocket 4.0 19:37:47 10° N 19:44:05 85° ENE 19:50:15 10° S
STARLINK-1143 4.3 19:40:43 10° SSW 19:44:18 31° SE 19:46:25 19° E
CZ-2C R/B 3.2 19:40:40 10° NNE 19:45:20 32° E 19:49:57 10° SSE
Meteor 2-8 Rocket 4.4 19:39:13 10° S 19:45:22 85° E 19:51:33 10° NNE
STARLINK-1110 4.3 19:42:23 10° WNW 19:46:13 44° SSW 19:48:57 17° SE
ATLAS 2AS CENTAUR R/B 3.7 19:40:10 10° NW 19:47:35 42° NNE 19:53:37 14° E
STARLINK-1119 3.6 19:44:14 10° WNW 19:48:24 90° N 19:51:03 22° ESE
STARLINK-67 2.5 19:47:13 10° WSW 19:49:45 54° SSE 19:50:38 32° E
Cosmos 1470 2.9 19:48:41 10° S 19:52:26 51° E 19:56:14 10° NNE
STARLINK-1114 3.6 19:49:13 10° WNW 19:53:23 88° SSW 19:55:51 24° ESE
Cosmos 1437 4.2 19:51:07 10° NNE 19:53:25 19° ENE 19:53:29 19° ENE
SJ-6B 3.3 19:49:39 10° S 19:53:41 65° WSW 19:57:49 10° NNW
Cosmos 1758 3.5 19:50:20 10° S 19:54:17 50° E 19:58:17 10° NNE
ARGOS 3.6 19:49:12 10° S 19:54:34 65° WSW 19:59:57 10° NNW
STARLINK-1122 4.4 19:51:17 10° W 19:55:04 40° SSW 19:57:29 19° SSE
Cosmos 2074 Rocket 4.3 19:49:52 10° N 19:55:55 48° ENE 20:00:33 17° SE
STARLINK-1241 4.1 19:53:04 10° SW 19:56:46 37° SSE 19:58:26 25° E
Meteor 2-15 4.4 19:51:51 10° S 19:57:49 65° E 20:03:48 10° NNE
USA 186 3.4 19:54:47 10° SSW 19:58:01 38° W 20:01:14 10° NNW
USA 234 3.3 19:51:52 10° ENE 19:58:17 55° SE 20:04:42 10° SW
STARLINK-1130 (DARKSAT) 3.6 19:54:11 10° WNW 19:58:21 85° SSW 20:00:37 26° ESE
ERBS 2.6 19:56:03 10° WSW 19:59:25 68° NNW 20:02:11 15° ENE
Cosmos 1302 Rocket 4.2 19:55:37 10° NNW 20:00:54 76° WSW 20:05:51 12° SSE
STARLINK-1239 4.0 19:57:29 10° SW 20:01:12 39° SSE 20:02:43 27° ESE
STARLINK-1084 3.6 19:59:10 10° WNW 20:03:19 82° SSW 20:05:24 29° ESE
Cosmos 1269 Rocket 3.9 19:58:56 10° SSW 20:04:13 80° ESE 20:09:33 10° NNE
Cosmos 1992 Rocket 4.2 20:00:10 10° NNW 20:05:19 55° ENE 20:08:13 25° SE
STARLINK-1234 2.7 20:02:26 10° WSW 20:05:20 56° SSE 20:05:56 45° ESE
STARLINK-1240 3.9 20:01:55 10° SW 20:05:41 41° SSE 20:07:02 30° ESE
Aureole 2 Rocket 3.0 20:03:04 10° NNW 20:06:25 41° ENE 20:07:20 33° E
Cosmos 1455 Rocket 3.7 20:02:56 10° SSW 20:07:12 56° WNW 20:11:31 10° N
Terra 3.6 20:06:27 15° ENE 20:07:41 16° NE 20:10:32 10° NNE
STARLINK-1098 3.6 20:04:09 10° WNW 20:08:18 80° SSW 20:10:10 32° ESE
NOSS 2-2 (E) 4.5 20:03:31 10° NW 20:09:01 86° NE 20:13:59 22° SE
Cosmos 2369 Rocket 2.4 20:03:35 10° NNW 20:09:16 60° NE 20:12:29 26° SE
MetOp-A 4.2 20:04:02 10° SSE 20:09:24 81° WSW 20:14:48 10° NNW
STARLINK-1216 3.9 20:06:22 10° SW 20:10:10 43° SSE 20:11:23 33° ESE
Cosmos 2251 Rocket 4.3 20:07:47 20° SSE 20:10:29 31° ESE 20:15:11 10° NE
Cosmos 1626 Rocket 3.9 20:08:04 10° NNW 20:12:29 68° W 20:16:49 10° S
Meteor 1-21 Rocket 4.1 20:07:14 10° N 20:12:51 74° ENE 20:16:58 18° SSE
STARLINK-1123 3.6 20:09:09 10° WNW 20:13:18 77° SSW 20:14:59 35° ESE
STARLINK-1237 3.8 20:10:52 10° SW 20:14:42 46° SSE 20:15:45 36° ESE
NOSS 2-2 (C) 4.4 20:11:00 10° NW 20:16:21 84° NE 20:20:43 25° SE
SL-24 R/B 4.1 20:11:58 10° NNE 20:16:54 84° ESE 20:21:08 10° SSW
STARLINK-1097 3.6 20:14:07 10° WNW 20:18:16 74° SSW 20:19:45 38° SE
STARLINK-1201 3.0 20:15:09 10° WSW 20:18:22 58° SSE 20:18:44 54° ESE
CZ-2C R/B 3.8 20:13:48 10° NNE 20:18:36 88° WNW 20:23:21 10° SSW
STARLINK-1202 3.7 20:15:19 10° SW 20:19:10 48° SSE 20:20:05 40° ESE
CZ-2C R/B 4.4 20:14:57 10° SSW 20:19:38 37° W 20:24:10 10° NNW
Cosmos 1602 Rocket 3.8 20:15:09 10° NNW 20:19:39 73° W 20:23:19 15° S
STARLINK-1246 3.7 20:18:23 10° SW 20:22:17 50° SSE 20:23:09 42° ESE
STARLINK-1099 3.6 20:19:06 10° WNW 20:23:14 71° SSW 20:24:32 41° SE
IRIDIUM 104 4.3 20:19:31 10° N 20:24:47 90° N 20:29:13 15° S
Cosmos 2084 Rocket 3.5 20:21:03 10° NW 20:25:33 89° NE 20:27:11 39° SE
STARLINK-1104 3.7 20:24:06 10° WNW 20:28:13 67° SSW 20:29:19 45° SE
Cosmos 1726 2.5 20:29:52 44° E 20:29:52 44° E 20:33:12 10° NNE
ERS-1 Rocket 3.7 20:28:57 30° E 20:30:12 35° ENE 20:34:46 10° N
STARLINK-1224 3.5 20:28:50 10° SW 20:32:45 57° SSE 20:33:11 53° SE
Cosmos 1328 4.1 20:28:57 10° N 20:32:49 45° ENE 20:33:06 44° E
STARLINK-1144 3.7 20:29:04 10° WNW 20:33:11 64° SSW 20:34:05 48° SSE
ISS -3.8 20:30:12 10° W 20:33:33 66° SSW 20:33:40 65° S
IRIDIUM 114 4.4 20:28:43 10° N 20:33:57 77° W 20:38:22 15° S
Cosmos 1943 4.3 20:36:02 25° E 20:36:02 25° E 20:39:27 10° NE
IGS 5A 3.8 20:35:27 43° E 20:35:55 45° ENE 20:39:55 10° N
Cosmos 1953 2.1 20:35:28 35° S 20:37:03 78° E 20:41:03 10° NNE
STARLINK-1225 3.5 20:33:23 10° SW 20:37:20 59° SSE 20:37:36 58° SE
SAR-Lupe-2 3.8 20:34:08 10° NNE 20:37:15 51° ENE 20:37:15 51° ENE
STARLINK-1103 3.7 20:34:02 10° WNW 20:38:08 61° SSW 20:38:52 51° SSE
Cosmos 1943 Rocket 2.2 20:32:52 10° NNW 20:38:24 74° WSW 20:41:12 30° SSE
Cosmos 1726 Rocket 4.3 20:39:28 34° ENE 20:39:28 34° ENE 20:42:56 10° NNE
Cosmos 1825 Rocket 3.4 20:34:56 10° N 20:39:24 76° E 20:40:39 46° SSE
BREEZE-M DEB (TANK) 3.5 20:34:58 10° W 20:40:41 51° SSW 20:40:59 49° S
BREEZE-M DEB (TANK) 3.5 20:37:11 10° SW 20:39:39 24° SSW 20:39:39 24° SSW
STARLINK-1230 3.4 20:37:53 10° WSW 20:41:51 62° SSE 20:41:57 62° SSE
STARLINK-1101 3.8 20:39:02 10° WNW 20:43:07 58° SSW 20:43:39 53° S
STARLINK-1228 3.7 20:40:41 10° WSW 20:42:40 40° WSW 20:42:40 40° WSW
STARLINK-1203 3.3 20:40:08 10° WSW 20:44:01 66° SSE 20:44:01 66° SSE
STARLINK-1233 3.5 20:41:17 10° WSW 20:43:41 48° WSW 20:43:41 48° WSW
STARLINK-1212 3.6 20:41:45 10° WSW 20:44:06 47° WSW 20:44:06 47° WSW
STARLINK-1105 3.6 20:42:12 10° WSW 20:44:33 47° WSW 20:44:33 47° WSW
STARLINK-1209 3.9 20:42:42 10° WSW 20:44:34 36° WSW 20:44:34 36° WSW
Cosmos 2184 Rocket 4.0 20:39:16 10° N 20:45:41 86° W 20:49:42 24° S
SL-8 R/B 3.8 20:41:01 10° W 20:45:42 56° S 20:46:27 49° SSE
STARLINK-1206 3.7 20:42:41 10° WSW 20:44:58 45° WSW 20:44:58 45° WSW
STARLINK-1247 3.7 20:43:09 10° WSW 20:45:24 44° WSW 20:45:24 44° WSW
STARLINK-1243 3.4 20:42:27 10° WSW 20:46:22 65° SSE 20:46:22 65° SSE
STARLINK-1227 3.7 20:43:32 10° WSW 20:45:51 45° WSW 20:45:51 45° WSW
SPOT 5 3.4 20:46:58 36° ENE 20:47:07 36° ENE 20:51:08 10° N
STARLINK-1218 3.8 20:44:03 10° WSW 20:46:16 43° WSW 20:46:16 43° WSW
STARLINK-1226 3.8 20:44:29 10° WSW 20:46:43 43° WSW 20:46:43 43° WSW
STARLINK-1254 3.8 20:44:54 10° WSW 20:47:09 44° WSW 20:47:09 44° WSW
STARLINK-1102 3.8 20:44:02 10° WNW 20:48:05 55° SSW 20:48:27 53° S
Cosmos 1758 Rocket 3.6 20:43:47 10° NNW 20:48:11 77° W 20:49:37 42° S
STARLINK-1215 3.8 20:45:23 10° WSW 20:47:34 41° WSW 20:47:34 41° WSW
STARLINK-1231 3.9 20:45:50 10° WSW 20:48:00 41° WSW 20:48:00 41° WSW
STARLINK-1232 3.9 20:46:44 10° WSW 20:48:52 40° WSW 20:48:52 40° WSW
SL-16 R/B 2.5 20:44:21 10° SW 20:50:01 68° NW 20:55:41 10° NNE
STARLINK-1217 3.9 20:47:11 10° WSW 20:49:18 39° WSW 20:49:18 39° WSW
STARLINK-1208 3.9 20:47:36 10° WSW 20:49:46 41° WSW 20:49:46 41° WSW
STARLINK-1236 3.5 20:47:00 10° WSW 20:50:45 66° S 20:50:45 66° S
STARLINK-1229 4.0 20:48:06 10° WSW 20:50:10 38° WSW 20:50:10 38° WSW
STARLINK-1271 4.0 20:48:32 10° WSW 20:50:36 38° WSW 20:50:36 38° WSW
STARLINK-1270 4.1 20:49:00 10° WSW 20:51:02 37° WSW 20:51:02 37° WSW
STARLINK-1154 4.1 20:49:26 10° WSW 20:51:27 37° WSW 20:51:27 37° WSW
STARLINK-1111 3.9 20:48:59 10° WNW 20:53:02 52° SSW 20:53:13 52° SSW
STARLINK-1197 4.1 20:50:21 10° WSW 20:52:20 36° WSW 20:52:20 36° WSW
STARLINK-1189 4.2 20:50:47 10° WSW 20:52:45 35° WSW 20:52:45 35° WSW
Cosmos 1953 Rocket 3.5 20:49:54 10° N 20:54:21 74° ENE 20:54:54 64° SE
STARLINK-1187 4.1 20:51:37 10° WSW 20:53:43 38° WSW 20:53:43 38° WSW
STARLINK-1188 4.2 20:51:42 10° WSW 20:53:38 34° WSW 20:53:38 34° WSW
STARLINK-1198 4.2 20:52:08 10° WSW 20:54:03 34° WSW 20:54:03 34° WSW
STARLINK-1235 4.0 20:52:20 10° WSW 20:54:30 40° W 20:54:30 40° W
STARLINK-1199 4.3 20:53:38 10° WSW 20:55:34 34° WSW 20:55:34 34° WSW
STARLINK-1191 4.3 20:54:04 10° WSW 20:55:58 34° WSW 20:55:58 34° WSW
STARLINK-1210 4.3 20:54:32 10° WSW 20:56:25 33° WSW 20:56:25 33° WSW
STARLINK-1073 4.0 20:53:59 10° WNW 20:58:00 49° SSW 20:58:00 49° SSW
STARLINK-1221 4.3 20:55:09 10° WSW 20:57:01 33° WSW 20:57:01 33° WSW
STARLINK-1219 4.3 20:55:26 10° WSW 20:57:18 33° WSW 20:57:18 33° WSW
STARLINK-1222 4.4 20:55:53 10° WSW 20:57:44 32° WSW 20:57:44 32° WSW
Meteor 2-10 4.0 20:55:53 25° S 20:59:08 86° E 21:04:43 10° NNE
STARLINK-1211 4.4 20:56:21 10° WSW 20:58:09 31° WSW 20:58:09 31° WSW
STARLINK-1214 4.4 20:56:47 10° WSW 20:58:35 31° WSW 20:58:35 31° WSW
STARLINK-1269 3.7 20:56:09 10° WSW 20:59:36 61° SW 20:59:36 61° SW
MOS 1 Rocket 3.9 20:55:59 10° N 21:01:03 64° WNW 21:06:20 10° SSW
Meteor 2-17 Rocket 4.3 20:55:49 10° N 21:01:59 82° E 21:04:12 42° SSE
Cosmos 1703 3.2 20:58:33 10° NNW 21:02:31 87° W 21:02:31 87° W
STARLINK-1121 4.2 20:58:59 10° WNW 21:02:47 46° SW 21:02:47 46° SW
Landsat 7 3.7 21:02:20 60° SSE 21:03:11 85° ENE 21:07:59 10° NNW
USA 245 4.0 21:02:38 47° S 21:04:08 81° WSW 21:09:57 10° NNW
Cosmos 1606 Rocket 3.4 21:04:21 76° ESE 21:04:29 77° E 21:08:57 10° NNE
SPOT 1/Viking Rocket 3.5 21:03:22 55° SE 21:04:31 78° ENE 21:09:46 10° NNW
STARLINK-1200 3.8 21:00:44 10° WSW 21:04:00 57° SW 21:04:00 57° SW
COSMOS 2455 3.7 20:59:39 10° NNW 21:05:17 39° NE 21:07:10 31° ENE
Cosmos 2154 Rocket 4.0 21:00:00 10° N 21:06:24 89° ENE 21:08:57 40° S
NOSS 3-4 (A) 3.9 20:59:46 10° NW 21:06:31 65° NE 21:09:14 40° ESE
NOSS 3-4 (C) 3.9 20:59:52 10° NW 21:06:37 65° NE 21:09:20 40° ESE
STARLINK-1106 4.3 21:03:57 10° WNW 21:07:33 43° SW 21:07:33 43° SW
Cosmos 1461 4.2 21:04:53 10° NNW 21:08:53 32° NNE 21:09:24 31° NE
STARLINK-1192 4.0 21:05:16 10° WSW 21:08:23 52° WSW 21:08:23 52° WSW
Resurs 01 Rocket 3.1 21:07:15 19° SSW 21:09:41 33° W 21:13:42 10° NNW
Meteor 1-16 Rocket 4.0 21:07:55 35° SSW 21:10:18 90° WNW 21:15:48 10° NNE
Cosmos 1603 3.6 21:10:50 57° SSE 21:11:29 62° ESE 21:17:01 10° NE
Spot 2 Rocket 3.8 21:10:32 40° SSW 21:12:15 63° WSW 21:17:22 10° NNW
STARLINK-1244 4.2 21:09:55 10° WSW 21:12:52 47° WSW 21:12:52 47° WSW
NOSS 3-3 (A) 3.9 21:17:53 56° SE 21:18:03 56° SE 21:24:35 10° NE
NOSS 3-3 (C) 3.9 21:18:11 56° SE 21:18:11 56° SE 21:24:41 10° NE
Meteor 1-11 4.2 21:12:29 10° NNW 21:18:20 86° W 21:19:44 54° S
STARLINK-1138 4.4 21:14:31 10° WSW 21:17:17 43° WSW 21:17:17 43° WSW
Cosmos 2237 Rocket 4.4 21:17:15 10° W 21:21:49 25° NW 21:26:24 10° NNE
ATLAS CENTAUR R/B 4.1 21:21:51 10° NNW 21:24:05 14° N 21:26:15 10° NNE
Cosmos 962 Rocket 4.3 21:18:01 10° N 21:24:17 79° E 21:25:28 60° SSE
Cosmos 967 Rocket 4.5 21:23:39 57° SSE 21:24:20 60° ESE 21:30:43 10° NE
CZ-2C R/B 3.6 21:20:51 10° N 21:25:47 44° WNW 21:30:40 10° SW
CZ-4C R/B 4.1 21:22:00 10° WNW 21:27:22 30° N 21:33:39 10° ENE
Nadezhda 1 Rocket 4.1 21:27:10 32° SSW 21:30:22 79° W 21:36:48 10° N
SL-8 Rocket 4.0 21:24:36 10° N 21:30:51 63° ENE 21:31:31 59° ESE
Cosmos 921 Rocket 3.9 21:31:06 10° NNW 21:34:10 41° NNE 21:34:10 41° NNE
Cosmos 2228 3.5 21:36:07 56° WNW 21:36:07 56° WNW 21:40:21 10° N
ERBS 4.4 21:33:01 10° WNW 21:35:10 27° NW 21:35:10 27° NW
Cosmos 2366 rocket 4.1 21:31:20 10° N 21:37:24 56° ENE 21:37:38 56° E
ATLAS 2AS CENTAUR R/B 2.8 21:31:41 10° NW 21:39:28 89° NE 21:41:03 60° SE
USA 234 3.4 21:34:58 10° ENE 21:41:31 74° NNW 21:48:02 10° WSW
Cosmos 2058 Rocket 3.7 21:42:53 53° N 21:42:53 53° N 21:46:24 10° N
Cosmos 1656 Rocket 3.8 21:37:07 10° NW 21:42:46 65° WSW 21:43:13 62° SW
Terra 2.0 21:45:20 69° N 21:45:20 69° N 21:49:33 10° NNW
In-Cosmos 22 Rocket 4.4 21:44:42 10° N 21:50:15 63° ENE 21:50:15 63° ENE
Cosmos 2251 Rocket 4.3 21:48:01 13° SW 21:52:34 50° WNW 21:57:51 10° NNE
Cosmos 2369 Rocket 3.6 21:48:07 10° NW 21:52:58 30° WSW 21:54:17 27° SW
APEX 4.3 21:47:33 10° NNW 21:54:39 86° WSW 21:55:09 78° SSE
Cosmos 1959 Rocket 4.4 21:48:46 10° N 21:55:10 76° ENE 21:55:24 75° E
Iridium 4 Rocket 4.1 21:51:41 10° N 21:54:52 43° N 21:54:52 43° N
Mayak 1.1 21:57:15 10° NNE 21:58:18 17° NNE 21:58:18 17° NNE
Cosmos 2341 Rocket 4.3 22:02:43 10° NNW 22:08:57 59° W 22:09:55 53° SW
ERS-1 Rocket 3.9 22:08:57 40° W 22:08:57 40° W 22:13:43 10° NNW
Cosmos 1943 3.6 22:17:44 58° W 22:18:22 62° NW 22:24:03 10° NNE
Cosmos 1943 Rocket 4.4 22:18:30 10° WNW 22:21:12 14° W 22:22:45 12° WSW
Cosmos 1821 Rocket 4.4 22:16:01 10° N 22:21:38 51° NE 22:21:38 51° NE
SPOT 5 4.3 22:26:11 29° WNW 22:26:11 29° WNW 22:29:12 10° NNW
Cosmos 2218 Rocket 4.3 22:33:10 10° NNW 22:39:04 56° W 22:39:04 56° W
Cosmos 1697 Rocket 3.8 22:37:01 10° NNW 22:41:55 36° NE 22:41:55 36° NE
Cosmos 1763 Rocket 4.5 22:43:15 10° NNW 22:46:55 44° N 22:46:55 44° N
Cosmos 2181 Rocket 4.5 22:50:48 53° W 22:51:06 53° WNW 22:57:14 10° N
COSMOS 2455 3.4 22:45:38 10° NW 22:50:19 51° WNW 22:50:19 51° WNW
NOSS 3-4 (A) 4.5 22:50:51 10° NW 22:56:40 42° WSW 22:56:40 42° WSW
NOSS 3-4 (C) 4.5 22:50:56 10° NW 22:56:46 43° WSW 22:56:46 43° WSW
ATLAS CENTAUR R/B 4.0 23:01:12 10° NNW 23:02:49 17° N 23:02:49 17° N
Cosmos 1980 Rocket 3.5 23:01:38 10° NNW 23:06:22 32° NE 23:06:22 32° NE
CZ-4C R/B 3.5 23:11:06 10° NW 23:17:29 47° NNE 23:19:34 38° ENE
Terra 4.3 23:24:13 14° WNW 23:24:13 14° WNW 23:25:52 10° NW
USA 234 3.7 23:17:51 10° ENE 23:24:13 57° N 23:30:36 10° WNW
ATLAS 2AS CENTAUR R/B 4.2 23:23:31 10° WNW 23:28:29 26° W 23:28:29 26° W
Nadezhda 3 Rocket 4.4 23:31:58 60° NNW 23:31:58 60° NNW 23:37:12 10° N
Mayak 1.3 23:33:14 10° N 23:34:52 18° NNW 23:34:52 18° NNW
ATLAS 5 CENTAUR R/B 4.0 23:58:14 21° NE 23:58:14 21° NE 23:59:57 10° NE
